OBJECT J, 58925

Orbit data source: Space-Track

You're viewing an Uncataloged Satellite

Recently launched and/or uncataloged satellites may have evolving metadata. Metadata may include but not limited to: Owner, Maufacturer, Bus, Motor, and Mission.

OBJECT J, 58925 is a satellite in SSO that was launched on Sat, 03 Feb 2024 UTC via a JIELONG-3 launch vehicle from the South China Sea Launch Area (SCSLA). Unknown objects in Earth's orbit typically refer to objects detected orbiting the Earth but have not yet been identified or cataloged. These objects could be anything from previously untracked satellites, spent rocket stages, debris from satellite collisions, or even natural meteoroids temporarily captured by Earth's gravity.

Loading next visibility...
Identifier
58925, 2024-024J
Orbit
SSO
Country
Flag of TBDTBD
Related business
None
Manufacturer
Unknown
Mission
Operational Commercial Radar Imaging
Bus & Motor
Unknown
Mass
Unknown
Launch date (UTC)
2024-02-03 (2 years ago)
Launch vehicle
JIELONG-3
Launch site
South China Sea Launch Area (SCSLA)
Object type
Unknown
Shape & HBR
Box, 0.2 m
Radar Cross Section
0.240 m², Large (>1 m²)

Expand to show TLE details & history
Last TLE update: 21 hours ago

TLE from 21 hours ago
0 OBJECT J
1 58925U 24024J   26172.54365992  .00111316  00000-0  67073-3 0  9991
2 58925  97.3111 264.1082 0001547 128.3242 231.8164 15.77362955170390
Epoch: 2026-06-21T13:02Z
TLE epoch observation values (Epoch: 2026-06-21T13:02:52.217Z)
Latitude
0.00005°
Longitude
158.64821°
Altitude
341.728 km
Speed
7.703 km/s
True Right ascension
17h 36m 25s
True Declination
0° 00' 00"
Sunlit
Object was in full shadow at epoch
Visualization orbit readout
Latitude
Unknown
Longitude
Unknown
Altitude
Unknown
Speed
Unknown
Apparent Right ascension
Unknown
Apparent Declination
Unknown
Sunlit
N/A
Visualization observer readout
Local Sidereal Time
21:31:50
Azimuth
Unknown
Elevation
Unknown
Doppler factor
Unknown
Orbital elements
Apogee altitude
335.84 km
Perigee altitude
333.763 km
Semi-major axis
6,712.938 km
Eccentricity
0.00015
Inclination
97.3111°
RAAN
264.1082°
Arg. of periapsis
128.3242°
True anomaly
231.80247°
Mean anomaly
231.8164°
Eccentric anomaly
231.80943°
Mean motion
3.94616 °/min
Orbital period
91.23 mins
BSTAR
0.00067073
Loading maneuver chart data...
Computing Atmospheric mass density...
Loading historical data...
Loading historical data...
Loading historical data...
Loading historical data...
Loading historical data...
Loading historical data...
Loading historical data...

Documentation

Showing up to 5 results
|